Hourly Data Report for May 12, 2012

All times are specified in Local Standard Time (LST). Add 1 hour to adjust for Daylight Saving Time where and when it is observed.

SAULT STE MARIE A
ONTARIO

46°29'06.000" N
84°30'35.000" W
192.00 m
6057591
71260
YAM

Related Data

No related data is available for this station

Download Data

Hourly Data (May 2012)
Hourly Data Report for May 12, 2012
Temp Definition
°C
Dew Point Temp Definition
°C
Rel Hum Definition
%
Wind Dir Definition
10's deg

Wind Spd Definition
km/h
Visibility Definition
km
Stn Press Definition
kPa
Hmdx Definition


Wind Chill Definition


Weather Definition


TIME
00:00 Legend Double Dagger 15.2 6.0 54 28 15 10.0 99.52     LegendNANA
01:00 Legend Double Dagger 11.4 7.0 74 30 26 10.0 99.56     Cloudy
02:00 Legend Double Dagger 9.8 7.4 85 31 31 10.0 99.60     LegendNANA
03:00 Legend Double Dagger 8.7 7.3 91 31 25 10.0 99.63     LegendNANA
04:00 Legend Double Dagger 8.4 7.0 91 30 21 10.0 99.69     Mostly Cloudy
05:00 Legend Double Dagger 8.0 6.6 91 32 17 10.0 99.69     LegendNANA
06:00 Legend Double Dagger 7.1 6.4 95 29 21 10.0 99.79     LegendNANA
07:00 Legend Double Dagger 7.3 6.4 94 29 20 10.0 99.87     Cloudy
08:00 Legend Double Dagger 7.1 6.1 93 30 23 10.0 99.92     LegendNANA
09:00 Legend Double Dagger 8.1 6.2 88 29 26 10.0 99.95     LegendNANA
10:00 Legend Double Dagger 9.8 6.5 80 29 24 10.0 99.96     Mostly Cloudy
11:00 Legend Double Dagger 10.2 6.8 79 29 19 10.0 100.01     LegendNANA
12:00 Legend Double Dagger 12.1 6.6 69 29 24 10.0 100.03     LegendNANA
13:00 Legend Double Dagger 13.1 5.8 61 30 27 10.0 100.03     Mostly Cloudy
14:00 Legend Double Dagger 14.4 3.9 49 29 28 10.0 100.02     LegendNANA
15:00 Legend Double Dagger 14.7 2.0 42 30 29 10.0 100.02     LegendNANA
16:00 Legend Double Dagger 15.1 -0.2 35 30 32 10.0 100.01     Cloudy
17:00 Legend Double Dagger 15.0 0.5 37 31 31 10.0 100.03     LegendNANA
18:00 Legend Double Dagger 13.6 -0.8 37 32 21 10.0 100.05     LegendNANA
19:00 Legend Double Dagger 11.9 -0.9 41 32 20 10.0 100.05     Mostly Cloudy
20:00 Legend Double Dagger 10.3 -0.8 46 32 17 10.0 100.04     LegendNANA
21:00 Legend Double Dagger 5.7 -1.5 60 10 5 10.0 100.08     LegendNANA
22:00 Legend Double Dagger 3.7 -1.9 67   0 10.0 100.09     Mainly Clear
23:00 Legend Double Dagger 1.3 -2.8 74   0 10.0 100.08     LegendNANA

Notes on Data Quality.

Legend

  • E = Estimated
  • M = Missing
  • NA = Not Available
  • ‡ = Partner data that is not subject to review by the National Climate Archives
Date modified: